Home   Weather   Brest   Past weeks

Flag for France Past Weather in Brest, Brittany, France — Yesterday and Last 2 Weeks

46 °F

Passing clouds.

Feels Like: 46 °F
Forecast: 47 / 59 °F
Wind: No wind

Location: Brest Airport

Current Time: Oct 21, 2016 at 2:33:46 AM

Latest Report: Oct 21, 2016 at 2:00 AM

Visibility: 6 mi

Pressure: 30.18 "Hg

Humidity: 93%

Dew Point: 45 °F

Location of BrestLocation

Past Weather in Brest — Graph


Brest Temperature Yesterday

Maximum temperature yesterday: 57 °F (at 2:00 PM)
Minimum temperature yesterday: 43 °F (at 8:00 AM)
Average temperature yesterday: 50 °F

High & Low Weather Summary for the Past Weeks

High63 °F (Oct 8, 3:30 PM)100% (Oct 7, 6:30 AM)30.36 "Hg (Oct 7, 6:30 AM)
Low39 °F (Oct 7, 6:00 AM)39% (Oct 6, 2:30 PM)29.59 "Hg (Oct 14, 4:30 PM)
Average52 °F83%30.05 "Hg
* Reported Oct 6 1:00 AM — Oct 21 1:30 AM, Brest, Weather by CustomWeather, © 2016

Note: Actual official high and low records may vary slightly from our data, if they occured in-between our weather recording intervals... More about our weather records


Brest Weather History for the Previous 24 Hours

Scroll right to see more
Time TempWeatherWind HumidityBarometerVisibility
1:30 AM
Fri, Oct 21
43 °FPartly cloudy.2 mph100%30.18 "Hg6 mi
1:00 AM43 °FLight fog.1 mph93%30.18 "Hg6 mi
12:30 AM43 °FClear.2 mph100%30.18 "Hg4 mi
12:00 AM43 °FClear.2 mph93%30.18 "Hg10 mi
11:30 PM
Thu, Oct 20
45 °FClear.5 mph93%30.18 "Hg10 mi
11:00 PM45 °FClear.6 mph93%30.18 "Hg10 mi
10:30 PM46 °FClear.5 mph87%30.18 "Hg10 mi
10:00 PM46 °FClear.7 mph87%30.18 "Hg10 mi
9:30 PM46 °FClear.7 mph87%30.18 "Hg10 mi
9:00 PM46 °FClear.5 mph93%30.18 "Hg10 mi
8:30 PM48 °FClear.3 mph87%30.18 "Hg10 mi
8:00 PM50 °FClear.3 mph82%30.18 "Hg10 mi
7:30 PM52 °FClear.5 mph77%30.15 "Hg10 mi
7:00 PM54 °FPassing clouds.7 mph72%30.15 "HgN/A
6:30 PM55 °FSunny.6 mph77%30.15 "Hg10 mi
6:00 PM55 °FPassing clouds.8 mph72%30.15 "HgN/A
5:30 PM57 °FSunny.9 mph67%30.15 "Hg10 mi
5:00 PM57 °FPassing clouds.9 mph67%30.15 "HgN/A
4:30 PM57 °FPassing clouds.9 mph63%30.15 "HgN/A
4:00 PM57 °FPassing clouds.9 mph67%30.15 "HgN/A
3:30 PM57 °FPassing clouds.9 mph67%30.18 "HgN/A
3:00 PM57 °FPassing clouds.9 mph67%30.18 "HgN/A
2:30 PM57 °FSunny.10 mph72%30.18 "Hg10 mi
2:00 PM57 °FPartly sunny.9 mph67%30.18 "HgN/A
1:30 PM55 °FPartly sunny.9 mph72%30.18 "HgN/A
1:00 PM55 °FPartly sunny.12 mph77%30.18 "HgN/A
12:30 PM55 °FPassing clouds.10 mph82%30.18 "HgN/A
12:00 PM54 °FPartly sunny.3 mph88%30.18 "HgN/A
11:30 AM54 °FPassing clouds.5 mph88%30.21 "HgN/A
11:00 AM50 °FPassing clouds.2 mph100%30.18 "HgN/A
10:30 AM46 °FPassing clouds.2 mph100%30.21 "HgN/A
10:00 AM45 °FSunny.2 mph100%30.21 "Hg10 mi
9:30 AM45 °FClear.3 mph100%30.18 "Hg4 mi
9:00 AM43 °FSunny.3 mph100%30.18 "Hg10 mi
8:30 AM45 °FPassing clouds.3 mph100%30.18 "HgN/A
8:00 AM43 °FFog.3 mph100%30.18 "Hg1 mi
7:30 AM45 °FClear.3 mph100%30.18 "HgN/A
7:00 AM45 °FClear.5 mph100%30.18 "HgN/A
6:30 AM46 °FClear.3 mph93%30.18 "Hg10 mi
6:00 AM48 °FClear.3 mph94%30.18 "Hg10 mi
5:30 AM48 °FClear.5 mph94%30.18 "Hg10 mi
5:00 AM50 °FPassing clouds.3 mph88%30.18 "HgN/A
4:30 AM50 °FOvercast.3 mph88%30.18 "HgN/A
4:00 AM50 °FOvercast.3 mph88%30.21 "HgN/A
3:30 AM50 °FOvercast.1 mph94%30.21 "HgN/A
3:00 AM50 °FMostly cloudy.2 mph88%30.21 "HgN/A
2:30 AM50 °FMostly cloudy.3 mph88%30.21 "HgN/A
2:00 AM50 °FOvercast.3 mph88%30.21 "HgN/A
Weather by CustomWeather, © 2016

See weather overviewHow to use our weather pages